Regional Weather Roundup
Issued by NWS

Home | Current Version | Previous Version | Text Only | Print | Product List | Glossary On
Versions: 1 2 3 4 5 6 7 8 9 10 11 12 13 14 15 16 17 18 19 20 21 22 23 24 25 26 27 28 29 30 31 32 33 34 35 36 37 38 39 40 41 42 43 44 45 46 47 48 49 50
000
ASUS43 KMKX 291900
RWRWI

WISCONSIN REGIONAL WEATHER ROUNDUP
NATIONAL WEATHER SERVICE MILWAUKEE/SULLIVAN WI
200 PM CDT SAT APR 29 2017

NOTE: "FAIR" INDICATES FEW OR NO CLOUDS BELOW 12,000 FEET WITH NO
SIGNIFICANT WEATHER AND/OR OBSTRUCTIONS TO VISIBILITY.

WIZ001-002-006>008-014>016-023>028-292000-
NORTHWEST WISCONSIN

CITY           SKY/WX    TMP DP  RH WIND       PRES   REMARKS
SUPERIOR ARPT  SUNNY     48  21  34 E10       30.36S
ASHLAND        CLOUDY    46  22  38 N16       30.37R
HAYWARD        MOSUNNY   51  22  31 N13       30.31R
SIREN          MOSUNNY   52  18  26 E7G18     30.30S
CUMBERLAND     MOSUNNY   50  19  29 N12       30.28S
RICE LAKE      MOSUNNY   52  24  34 NE10G20   30.29S
CHETEK         MOSUNNY   52  26  37 E7        30.28R
LADYSMITH      MOSUNNY   51  26  36 N3        30.30R
EAU CLAIRE     NOT AVBL
MENOMONIE      CLOUDY    52  24  34 NE10G20   30.27S
NEW RICHMOND   PTSUNNY   52  22  30 NE10G16   30.28S
OSCEOLA        MOSUNNY   53  24  32 NE12G18   30.31F
$$

WIZ003>005-009-010-017-018-292000-
NORTH CENTRAL WISCONSIN

CITY           SKY/WX    TMP DP  RH WIND       PRES   REMARKS
MANITOWISH WTR NOT AVBL
ARBOR VITAE    CLOUDY    47  21  36 E8        30.29R
WOODRUFF       CLOUDY    47  21  36 E8        30.29R
RHINELANDER    CLOUDY    50  25  37 E9        30.30R
EAGLE RIVER    MOSUNNY   47  20  34 NE14      30.28R
LAND O LAKES   CLOUDY    47  21  35 E8        30.30R
PHILLIPS       MOSUNNY   49  25  39 E9G21     30.28R
TOMAHAWK       MOSUNNY   50  25  37 E10       30.29R
MEDFORD        PTSUNNY   49  27  42 E8        30.27R
MERRILL        MOSUNNY   50  26  39 E9        30.28R
$$

WIZ029-030-035-036-043>047-292000-
CENTRAL WISCONSIN

CITY           SKY/WX    TMP DP  RH WIND       PRES   REMARKS
WAUSAU         MOSUNNY   50  26  39 NE10      30.26R
MOSINEE        CLOUDY    48  28  46 NE9       30.28R
MARSHFIELD     CLOUDY    49  27  42 E16       30.26R
STEVENS POINT  CLOUDY    47  25  42 E14       30.28R
WAUPACA        CLOUDY    49  29  46 E10G16    30.29R
WAUTOMA        CLOUDY    47  29  49 NE16      30.27R
WISC RAPIDS    CLOUDY    49  27  42 E14       30.28R
CAMP DOUGLAS   NOT AVBL
$$

WIZ011>013-019>022-031-037>040-048>050-292000-
NORTHEAST WISCONSIN

CITY           SKY/WX    TMP DP  RH WIND       PRES   REMARKS
ANTIGO         MOSUNNY   48  28  45 NE13G18   30.27R
SHAWANO        CLOUDY    49  30  46 E13       30.29R
OCONTO         NOT AVBL
STURGEON BAY   CLOUDY    44  31  60 NE8       30.32R
GREEN BAY      CLOUDY    46  32  58 NE18      30.31R
MANITOWOC      NOT AVBL
APPLETON       CLOUDY    45  25  45 NE12G23   30.29R
CLINTONVILLE   CLOUDY    46  28  49 NE8G18    30.29R
OSHKOSH        CLOUDY    45  30  55 NE13      30.28R
$$

WIZ032>034-041-042-053>061-292000-
SOUTHWEST WISCONSIN

CITY           SKY/WX    TMP DP  RH WIND       PRES   REMARKS
LA CROSSE      CLOUDY    50  27  40 E8        30.25R
SPARTA         CLOUDY    47  28  46 E14       30.26S
VIROQUA        CLOUDY    45  30  55 NE16      30.22S
BOSCOBEL       CLOUDY    48  30  49 NE10      30.24S
PRAIRIE DU CHI CLOUDY    46  30  53 NE8       30.22S
PLATTEVILLE    PTSUNNY   45  36  70 NE21      30.19F
$$

WIZ056-057-062-063-064-067-068-292000-
SOUTH CENTRAL WISCONSIN

CITY           SKY/WX    TMP DP  RH WIND       PRES   REMARKS
REEDSBURG      NOT AVBL
BARABOO/DELLS  CLOUDY    44  29  57 E14G21    30.26R
LONE ROCK      NOT AVBL
MINERAL POINT  CLOUDY    45  36  70 NE17      30.19F
MADISON        CLOUDY    45  33  63 E13G22    30.25R
MIDDLETON      CLOUDY    45  34  65 E14       30.26R
WATERTOWN      CLOUDY    44  32  62 NE12      30.26R
MONROE         CLOUDY    45  32  61 NE18      30.19F
JANESVILLE     CLOUDY    46  32  57 NE18      30.19F
$$

WIZ051-052-058>065-066-070>072-292000-
SOUTHEAST WISCONSIN

CITY           SKY/WX    TMP DP  RH WIND       PRES   REMARKS
MILWAUKEE      CLOUDY    41  32  70 N15G31    30.27S
WAUKESHA       SUNNY     39  28  65 NE16G24   30.28R WCI  30
MILWAUKEE/TIMM MOSUNNY   39  28  65 NE16G24   30.28R WCI  30
RACINE         CLOUDY    40  31  70 N17G25    30.27S WCI  31
KENOSHA        CLOUDY    41  31  67 NE17G25   30.23F
FOND DU LAC    CLOUDY    46  31  55 E13       30.27R
SHEBOYGAN      CLOUDY    40  35  83 NE22      30.29R WCI  30
WEST BEND      CLOUDY    39  32  75 NE17G23   30.27F WCI  30
JUNEAU         CLOUDY    44  32  62 NE10      30.27R
$$

LSZ147-162-292000-
LAKE SUPERIOR

STATION/POSITION TIME  TEMP    WIND        PRES    WAVE
                       AIR SEA DIR/SP/G            HT/PER
                 (UTC) (F)     (DEG/KT/KT) (MB)    (FT/S)
DEVILS ISLAND    1800   38      50/  4/  5 1029.3R
SAXON HARBOR     1830   39      10/  9/ 12 1028.4R
$$

LMZ867-665-643>646-292000-
LAKE MICHIGAN

STATION/POSITION TIME  TEMP    WIND        PRES    WAVE
                       AIR SEA DIR/SP/G            HT/PER
                 (UTC) (F)     (DEG/KT/KT) (MB)    (FT/S)
CHAMBERS ISLAND  1840   43      40/ 11/ 18 1026.1S
N MID LAKE BUOY  1750   37 38   70/  2/  2 1027.8F   1/ 3
NORTHPORT PIER   1840   40     130/  5/  7 1026.4S
KEWAUNEE LAKESHO 1830   40      60/  6/ 13 1025.8F
SHEBOYGAN LAKESH 1800   38      30/ 26/ 28 1025.9R
PORT WASHINGTON  1840   40      40/ 17/ 24 1025.7F
MILWAUKEE LAKESH 1830   39      30/ 21/ 25   N/A
S MID LAKE BUOY  1750   40 41   10/ 19/ 23 1023.7R   5/ 6
KENOSHA   LAKESH 1800   40      30/ 25/ 27 1024.4
$$

TC  - TEMPERATURE IN CELSIUS
VSB - VISIBILITY IN STATUTE MILES
WCI - WIND CHILL INDEX
HX  - HEAT INDEX





USA.gov is the U.S. government's official web portal to all federal, state and local government web resources and services.